Location: Poprad
(49.0500°N, 20.3000°E)
Time: 02:43:57
(UTC+01:00)

Daily predictions for brighter satellites

Satellite Brightness Start Highest point End
(mag) Time Altitude Azimuth Time Altitude Azimuth Time Altitude Azimuth
Cosmos 2082 Rocket 4.4 03:09:19 20° NE 03:09:19 20° NE 03:11:14 10° NE
USA 234 4.4 03:04:26 10° E 03:08:25 39° E 03:08:25 39° E
Cosmos 2360 Rocket 4.4 03:34:39 17° NNE 03:35:32 17° NE 03:39:16 10° ENE
SeaSat 1 4.3 03:33:34 10° NE 03:37:24 26° E 03:37:24 26° E
Cosmos 1980 Rocket 3.9 03:41:50 25° SE 03:41:50 25° SE 03:44:09 10° SE
Meteor 2-4 Rocket 4.2 04:08:22 53° SE 04:08:22 53° SE 04:12:47 10° SSE
ATLAS 5 CENTAUR R/B 4.0 04:09:57 20° N 04:10:04 20° NNE 04:14:20 10° ENE
USA 267 3.2 04:10:09 10° ENE 04:16:43 80° SE 04:17:37 67° SSW
SL-16 R/B 2.8 04:17:16 47° NNE 04:18:20 53° NE 04:23:52 10° SE
Meteor 1-11 Rocket 4.0 04:17:37 10° S 04:23:31 70° E 04:29:19 10° NNE
Cosmos 2322 Rocket 2.7 04:22:49 47° N 04:24:05 57° ENE 04:29:40 10° SE
Cosmos 2344 4.5 04:24:33 42° NW 04:29:09 71° SW 04:43:13 10° SSE
Cosmos 44 Rocket 4.4 04:31:06 35° NNE 04:31:06 35° NNE 04:33:55 10° NE
BREEZE-M DEB (TANK) 4.3 04:31:22 34° SSE 04:31:22 34° SSE 04:34:41 10° SE
SKYMED 2 3.7 04:42:27 10° SSE 04:46:16 69° SSE 04:46:16 69° SSE
Meteor 1-5 Rocket 4.2 04:43:02 10° S 04:48:26 73° E 04:53:45 10° NNE
Timation 2 Rocket 4.3 04:43:08 10° SSW 04:49:59 75° ESE 04:56:51 10° NNE
Cosmos 2082 Rocket 2.8 04:51:13 39° NNW 04:51:13 39° NNW 04:55:32 10° NNE
USA 234 3.3 04:47:29 10° SE 04:53:58 60° SW 04:55:47 45° W
Cosmos 1833 Rocket 3.4 04:55:57 35° NNW 04:55:57 35° NNW 05:00:02 10° NNE
Cosmos 44 4.4 04:58:14 27° N 04:58:14 27° N 05:00:48 10° NNE
Cosmos 1092 Rocket 4.1 04:55:47 10° S 05:01:52 75° E 05:08:02 10° NNE
EO 1 Del DPAF 3.8 05:05:17 10° S 05:08:04 43° SSW 05:08:04 43° SSW
PAYLOAD A 4.2 05:04:04 10° NNE 05:09:33 80° ESE 05:14:55 10° SSW
CZ-4B R/B 3.7 05:05:05 10° N 05:09:34 38° NW 05:09:34 38° NW
Okean 1-7 Rocket 3.9 05:06:49 15° N 05:10:29 69° ENE 05:15:02 10° SSE
IRS-1C Rocket 4.4 05:06:33 10° N 05:11:08 42° NW 05:11:08 42° NW
Cosmos 2333 Rocket 4.2 05:09:03 10° N 05:13:32 22° NE 05:17:59 10° E
SeaSat 1 2.5 05:10:41 10° NNE 05:15:31 54° NW 05:17:13 36° WSW
Cosmos 1300 Rocket 3.4 05:11:51 10° SSW 05:16:06 60° WNW 05:20:25 10° N
Meteor 1-23 Rocket 4.3 05:14:16 30° NW 05:16:48 52° W 05:22:09 10° S
CZ-4C R/B 2.2 05:12:11 13° SW 05:16:57 84° SE 05:23:09 10° NE
COSMOS 2428 4.1 05:12:10 12° NNW 05:16:58 34° NE 05:22:08 10° ESE
Meteor 1-4 Rocket 2.7 05:14:16 10° S 05:18:03 78° E 05:21:52 10° NNE
Cosmos 1025 Rocket 2.8 05:17:10 31° NNW 05:19:09 76° W 05:23:25 10° S
Cosmos 2360 Rocket 2.5 05:16:27 18° NNW 05:20:42 66° ENE 05:26:20 10° SE
Cosmos 1066 Rocket 4.3 05:15:25 10° N 05:20:47 71° ENE 05:26:11 10° SSE
ERBS 4.1 05:20:52 21° N 05:20:52 21° N 05:23:28 10° ENE
Cosmos 1980 Rocket 3.7 05:23:40 19° SW 05:23:40 19° SW 05:26:10 10° SSW
Meteor 2-11 Rocket 4.3 05:18:58 10° NNW 05:25:06 79° W 05:31:10 10° S
NOAA 6 4.0 05:20:42 10° N 05:25:46 62° WNW 05:30:50 10° SSW
deb Kosmos-1763 4.0 05:24:51 10° SSW 05:28:36 89° ESE 05:32:21 10° NNE
Cosmos 1500 3.1 05:25:43 10° S 05:29:34 87° W 05:33:26 10° N
Cosmos 2219 Rocket 3.8 05:25:05 10° NNW 05:30:01 29° NE 05:34:55 10° ESE
CZ-2C R/B 2.3 05:25:34 10° NNE 05:30:29 88° ESE 05:35:13 10° SSW
COSMO-SKYMED 1 3.3 05:31:10 10° SSW 05:34:52 31° W 05:34:52 31° W
CZ-4 R/B 3.6 05:33:36 10° NE 05:37:16 29° E 05:40:57 10° SSE
Okean-O 2.8 05:33:24 10° N 05:37:41 47° WNW 05:41:55 10° SW
Cosmos 1184 Rocket 3.0 05:44:44 35° NW 05:45:41 47° W 05:48:53 10° S
Cosmos 2237 Rocket 4.1 05:41:21 10° N 05:45:52 23° NE 05:50:21 10° E
Cosmos 773 Rocket 4.1 05:43:31 10° SW 05:48:32 51° WNW 05:53:36 10° NNE
Cosmos 1624 Rocket 4.3 05:44:47 10° NNW 05:50:08 68° ENE 05:55:27 10° SSE
IDEFIX/ARIANE 42P 2.7 05:45:58 10° N 05:51:00 51° WNW 05:56:01 10° SW
Okean 1 Rocket 3.4 05:47:19 10° SW 05:51:28 42° WNW 05:55:42 10° N
BREEZE-M DEB (TANK) 3.6 05:49:51 12° SW 05:51:54 42° SSE 05:56:35 10° ENE
MSX 3.7 05:47:42 10° NNE 05:53:29 77° WNW 05:59:12 10° SSW
SJ-12 3.8 05:51:22 10° N 05:55:27 70° WNW 05:59:29 10° SSW
ATLAS 5 CENTAUR R/B 3.3 05:51:30 13° NNW 05:56:12 41° NE 06:02:08 10° ESE
Okean 2 4.2 05:55:11 22° NW 05:56:45 29° W 06:00:19 10° SSW
Celestis-02/Orion 38 4.5 05:53:04 10° SSE 05:58:08 79° WSW 06:03:05 11° NNW
Cosmos 1680 Rocket 3.5 05:53:07 10° SSW 05:58:19 88° ESE 06:03:36 10° NNE
USA 267 3.5 05:53:15 10° ENE 05:59:34 53° NNW 06:04:58 14° W
Meteor 1-12 Rocket 4.3 05:55:10 10° S 06:00:52 82° E 06:06:33 10° NNE
Cosmos 1666 3.1 05:58:03 10° S 06:01:52 67° E 06:05:39 10° NNE
SL-16 R/B 3.1 05:59:11 19° WNW 06:02:09 29° WSW 06:06:56 10° SSW
SJ-7 4.4 05:59:28 10° NNE 06:03:33 85° ESE 06:07:37 10° SSW
Cosmos 1975 2.7 06:01:24 10° SSW 06:05:20 62° WNW 06:09:19 10° N
COSMOS 2441 4.4 06:00:56 10° N 06:05:43 59° WNW 06:10:26 10° SSW
AQUARIUS 4.5 06:01:24 10° NNE 06:05:55 71° ESE 06:10:24 10° S
Cosmos 1626 Rocket 4.4 06:03:09 10° N 06:07:23 51° ENE 06:11:38 10° SSE
Cosmos 1892 Rocket 3.6 06:03:19 10° NNW 06:07:40 59° W 06:11:57 10° S
Cosmos 2322 Rocket 3.2 06:04:41 17° WNW 06:07:47 27° WSW 06:12:28 10° SSW
YAOGAN 1 4.0 06:03:45 10° NNE 06:07:52 41° E 06:11:57 10° S
Cosmos 389 Rocket 2.5 06:06:37 10° S 06:10:14 89° E 06:13:51 10° NNE
Cosmos 1371 Rocket 4.0 06:06:47 10° NNW 06:12:01 71° WSW 06:17:09 10° SSE
CSL-04 Rocket 3.8 06:07:44 10° NNE 06:13:20 85° ESE 06:18:53 10° SSW
Cosmos 2285 Rocket 3.9 06:07:36 10° SSW 06:13:54 74° WNW 06:20:14 10° NNE
BREEZE-M DEB (TANK) 2.8 06:12:16 14° WNW 06:18:14 56° SSW 06:20:39 10° SE
Cosmos 2237 4.2 06:12:45 10° NNW 06:18:27 71° WSW 06:24:06 10° SSE
Thor Agena Rocket 4.0 06:14:29 10° SSW 06:19:13 40° W 06:24:01 10° NNW
ERS-2 4.5 06:20:15 10° NE 06:23:30 28° E 06:26:43 10° SSE
Cosmos 1238 Rocket 4.2 06:17:03 10° N 06:23:48 81° E 06:29:51 10° SSE
SMAP 3.0 06:19:16 10° NNE 06:23:57 79° WNW 06:28:36 10° SSW
ATLAS CENTAUR R/B 3.0 06:20:40 10° S 06:24:02 35° ESE 06:27:25 10° NE
Cosmos 923 Rocket 4.3 06:25:05 10° SW 06:30:04 43° WNW 06:35:03 10° NNE
S3M 4.1 06:25:07 10° NNW 06:31:07 55° W 06:37:11 10° SSW
Cosmos 2322 4.0 06:25:55 10° NW 06:31:24 50° WSW 06:36:49 10° S
Cosmos 2082 Rocket 3.9 06:33:07 10° WNW 06:35:45 13° NNW 06:38:25 10° N
Cosmos 1602 Rocket 3.5 06:31:28 10° N 06:35:49 90° W 06:40:08 10° S
ALOS 3.5 06:32:45 10° NNE 06:37:16 47° E 06:41:46 10° S
Cosmos 1833 4.2 06:34:42 10° SW 06:40:15 68° WNW 06:45:52 10° NNE
Cosmos 1833 Rocket 4.5 06:38:11 10° NW 06:40:22 12° NNW 06:42:33 10° N
SL-16 R/B 3.9 06:36:27 10° NNW 06:41:12 26° NE 06:45:54 10° E
Cosmos 1484 Rocket 3.3 06:37:49 10° N 06:41:27 37° WNW 06:45:00 10° SW
Cosmos 1842 3.4 06:39:05 10° NNW 06:42:59 58° W 06:46:52 10° S
APEX 3.8 06:40:58 10° WSW 06:44:26 41° NW 06:48:51 10° NNE
SWAS 4.4 06:41:15 10° SW 06:45:33 67° WNW 06:49:53 10° NNE
Cosmos 1743 3.4 06:42:43 10° SW 06:46:12 33° WNW 06:49:42 10° N
Cosmos 2112 Rocket 4.3 06:41:27 10° SW 06:46:25 46° WNW 06:51:28 10° NNE
Aureole 2 Rocket 2.6 06:43:17 10° NNW 06:46:37 49° WSW 06:49:39 10° S
Cosmos 1455 Rocket 3.4 06:43:52 10° SSW 06:48:09 46° WNW 06:52:28 10° N
Cosmos 1420 Rocket 4.4 06:43:34 10° NNW 06:48:46 65° ENE 06:53:54 10° SE
Cosmos 2056 Rocket 3.9 06:44:30 10° NW 06:49:20 43° WSW 06:54:10 10° S
Meteor 1-21 4.5 06:44:21 10° NNW 06:49:43 49° W 06:55:06 10° SSW
CORIOLIS 4.2 06:46:28 10° N 06:51:46 63° WNW 06:57:02 10° SSW
